Orbital Elements at Epoch 2459000.5 (2020-May-31.0) TDB
Reference: JPL 15 (heliocentric ecliptic J2000)
Element | Value | Uncertainty (1-sigma) | Units |
e | .226900198493362 | 3.249e-08 | |
a | 1.703421875355211 | 3.9889e-09 | au |
q | 1.316915113719178 | 5.6086e-08 | au |
i | 29.49202815792248 | 6.8371e-06 | deg |
node | 179.4749511410677 | 7.2783e-06 | deg |
peri | 258.9580687824482 | 1.636e-05 | deg |
M | 184.4661382142799 | 1.4045e-05 | deg |
tp | 2459396.449832749802 (2021-Jun-30.94983275) | 3.2194e-05 | TDB |
period | 812.0481047920795 2.22 | 2.8524e-06 7.809e-09 | d yr |
n | .4433234901670955 | 1.5572e-09 | deg/d |
Q | 2.089928636991243 | 4.894e-09 | au |
|
| | Orbit Determination Parameters
Additional Information
|